Tracking 19575 objects as of 19-Feb-2019
HD Live streaming from Space Station
objects crossing your sky now

RADUGA 7

Track RADUGA 7 now!
RADUGA 7 is classified as:


NORAD ID: 12003
Int'l Code: 1980-081A
Perigee: 35,755.9 km
Apogee: 35,840.0 km
Inclination: 11.9 °
Period: 1,436.3 minutes
Semi major axis: 42168 km
RCS: 7.9432 m2 (large)
Launch date: October 5, 1980
Source: Commonwealth of Independent States (former USSR) (CIS)
Launch site: TYURATAM MISSILE AND SPACE COMPLEX (TTMTR)
aabbcc
Your satellite tracking list
Your tracking list is empty




NASA's NSSDC Master Catalog

Two Line Element Set (TLE):
1 12003U 80081A   19049.06214412 -.00000217 +00000-0 +00000-0 0  9997
2 12003 011.9498 318.3730 0009968 264.7745 279.5850 01.00256714096470
Source of the keplerian elements: AFSPC